sat.trackr.live / text

‹ back to catalog

STARLINK-31225

NORAD 59040 · 2024-038T

PAYLOAD ACTIVE UNKNOWN

§ Identity

Operator
Country
US
Launch date
2024-02-25
Launch site
AFETR
Launch vehicle
Mass (kg)
RCS (m²)

Purposes: comms

External: N2YO · Heavens-Above · Gunter

§ Orbital elements

Epoch: 2026-05-24T21:09:51.331104Z

Period
94.27 min
Inclination
43.0015°
Eccentricity
0.0001273
Mean motion
15.27584841 rev/d
Perigee alt
482.2 km
Apogee alt
483.9 km
Semi-major
6,861.2 km
B*
5.4269e-5
RAAN
312.9935°
Arg perigee
274.9326°
Mean anomaly
85.1381°
Rev number
12,634

§ Raw data

STARLINK-312251 59040U 24038T   26144.88184411  .00001232  00000+0  54269-4 0  99942 59040  43.0015 312.9935 0001273 274.9326  85.1381 15.27584841126348

JSON: /api/v1/satellites/59040 · /tle

For live sub-satellite position, see the globe view (requires WebGL).

§ Visibility from observer

Set your observer location to see the next 7 days of passes ≥ 10°. The values pass through the URL so the page stays shareable.

No JS? Fill the form by hand. The geolocation button needs JavaScript.